Orbital Elements at Epoch 2459200.5 (2020-Dec-17.0) TDB
Reference: JPL 16 (heliocentric ecliptic J2000)
Element | Value | Uncertainty (1-sigma) | Units |
e | .09696087885359482 | 1.6152e-07 | |
a | 2.548268985595901 | 2.4395e-08 | au |
q | 2.301186585197164 | 4.2625e-07 | au |
i | 5.460237589887694 | 9.19e-06 | deg |
node | 192.2460577376245 | 5.9436e-05 | deg |
peri | 292.0280258315509 | 0.00017643 | deg |
M | 182.9117426708791 | 0.00014337 | deg |
tp | 2459931.392647626658 (2022-Dec-17.89264763) | 0.00058467 | TDB |
period | 1485.820444077115 4.07 | 2.1336e-05 5.841e-08 | d yr |
n | .2422903799951455 | 3.4793e-09 | deg/d |
Q | 2.795351385994637 | 2.6761e-08 | au |
|
| | Orbit Determination Parameters
Additional Information
|